(°C)
10°
11°
12°
13°
(°C)
-0°
SZ
SZ
SZ
SZ
SZ
SZ
SZ
(km/h)
16-31
18-34
19-35
18-34
18-32
19-32
19-33
(mm)
0
0
0
0
0
0
0
(%)
0
0
0
0
0
0
0

Podizanje Sunca

/ 33.9°
sun-icon
UV 3
04:04
20:50
Star mesec (279°)
02:33
12:03

METAR za 55.6°S 37.27°I (UUWW)

Vreme Uslovi Temperatura/
Tačka rose
Vetar Vidljivost Prognoza Oblaci Pritisak Promena Neobrađeno
VFR 6°C / -3°C 310º 10kt >10km - Clouds and Visibility OK 1006 No Significant change UUWW 230500Z 31005MPS CAVOK 06/M03 Q1006 R06/000070 NOSIG
VFR 5°C / -3°C 320º 10kt >10km - Clouds and Visibility OK 1006 No Significant change UUWW 230430Z 32005MPS CAVOK 05/M03 Q1006 R06/000070 NOSIG
VFR 4°C / -3°C 330º 8kt >10km - Clouds and Visibility OK 1006 No Significant change UUWW 230400Z 33004MPS CAVOK 04/M03 Q1006 R06/000070 NOSIG
VFR 3°C / -3°C 320º 4kt >10km - Clouds and Visibility OK 1006 No Significant change UUWW 230330Z 32002MPS CAVOK 03/M03 Q1006 R06/000070 NOSIG
VFR 2°C / -3°C 310º 4kt >10km - Clouds and Visibility OK 1006 No Significant change UUWW 230300Z 31002MPS CAVOK 02/M03 Q1006 R06/000070 NOSIG
VFR 1°C / -3°C 320º 4kt >10km - Clouds and Visibility OK 1006 No Significant change UUWW 230230Z 32002MPS CAVOK 01/M03 Q1006 R06/000070 NOSIG
VFR 1°C / -4°C 320º 4kt >10km - Clouds and Visibility OK 1006 No Significant change UUWW 230200Z 32002MPS CAVOK 01/M04 Q1006 R06/000070 NOSIG
VFR 1°C / -4°C 320º variable 300º to 030º 4kt >10km - Clouds and Visibility OK 1006 No Significant change UUWW 230130Z 32002MPS 300V030 CAVOK 01/M04 Q1006 R06/000070 NOSIG
VFR 1°C / -4°C 330º 4kt >10km - Clouds and Visibility OK 1006 No Significant change UUWW 230100Z 33002MPS CAVOK 01/M04 Q1006 R06/000070 NOSIG
VFR 1°C / -4°C 340º variable 290º to 040º 6kt >10km - Clouds and Visibility OK 1005 No Significant change UUWW 230030Z 34003MPS 290V040 CAVOK 01/M04 Q1005 R06/000070 NOSIG
VFR 2°C / -4°C 330º 6kt >10km - Clouds and Visibility OK 1005 No Significant change UUWW 230000Z 33003MPS CAVOK 02/M04 Q1005 R06/000070 NOSIG
VFR 2°C / -4°C 330º 6kt >10km - Clouds and Visibility OK 1005 No Significant change UUWW 222330Z 33003MPS CAVOK 02/M04 Q1005 R06/000070 NOSIG
VFR 3°C / -4°C 340º 4kt >10km - Clouds and Visibility OK 1005 No Significant change UUWW 222300Z 34002MPS CAVOK 03/M04 Q1005 R06/000070 NOSIG
VFR 3°C / -4°C 10º variable 330º to 040º 6kt >10km - Clouds and Visibility OK 1005 No Significant change UUWW 222230Z 01003MPS 330V040 CAVOK 03/M04 Q1005 R06/000070 NOSIG
VFR 3°C / -4°C 20º 6kt >10km - Clouds and Visibility OK 1005 No Significant change UUWW 222200Z 02003MPS CAVOK 03/M04 Q1005 R06/000070 NOSIG
VFR 3°C / -4°C 30º 8kt >10km - Clouds and Visibility OK 1005 No Significant change UUWW 222130Z 03004MPS CAVOK 03/M04 Q1005 R06/000070 NOSIG
VFR 4°C / -4°C 30º 10kt >10km - Clouds and Visibility OK 1005 No Significant change UUWW 222100Z 03005MPS CAVOK 04/M04 Q1005 R06/000070 NOSIG
VFR 5°C / -4°C 30º 10kt >10km - Clouds and Visibility OK 1005 No Significant change UUWW 222030Z 03005MPS CAVOK 05/M04 Q1005 R06/000070 NOSIG
VFR 5°C / -3°C 10º 10kt >10km - Clouds and Visibility OK 1005 No Significant change UUWW 222000Z 01005MPS CAVOK 05/M03 Q1005 R06/000070 NOSIG
VFR 6°C / -4°C 360º 10kt >10km - Clouds and Visibility OK 1005 No Significant change UUWW 221930Z 36005MPS CAVOK 06/M04 Q1005 R06/000070 NOSIG
VFR 7°C / -4°C 360º 10kt >10km - Clouds and Visibility OK 1005 No Significant change UUWW 221900Z 36005MPS CAVOK 07/M04 Q1005 R06/000070 NOSIG
VFR 7°C / -4°C 360º 8kt Gust 17kt >10km - Clouds and Visibility OK 1005 No Significant change UUWW 221830Z 36004G09MPS CAVOK 07/M04 Q1005 R06/000070 NOSIG
VFR 8°C / -5°C 350º 8kt >10km - Clouds and Visibility OK 1005 No Significant change UUWW 221800Z 35004MPS CAVOK 08/M05 Q1005 R06/000070 NOSIG
VFR 8°C / -5°C 350º 8kt >10km - Clouds and Visibility OK 1004 No Significant change UUWW 221730Z 35004MPS CAVOK 08/M05 Q1004 R06/000070 NOSIG

VFR

6°C / -3°C

[Više]
Vetar 310º 10kt
Vidljivost >10km
Prognoza -
Oblaci Clouds and Visibility OK
Pritisak 1006
Promena No Significant change
Neobrađeno UUWW 230500Z 31005MPS CAVOK 06/M03 Q1006 R06/000070 NOSIG

VFR

5°C / -3°C

[Više]
Vetar 320º 10kt
Vidljivost >10km
Prognoza -
Oblaci Clouds and Visibility OK
Pritisak 1006
Promena No Significant change
Neobrađeno UUWW 230430Z 32005MPS CAVOK 05/M03 Q1006 R06/000070 NOSIG

VFR

4°C / -3°C

[Više]
Vetar 330º 8kt
Vidljivost >10km
Prognoza -
Oblaci Clouds and Visibility OK
Pritisak 1006
Promena No Significant change
Neobrađeno UUWW 230400Z 33004MPS CAVOK 04/M03 Q1006 R06/000070 NOSIG

VFR

3°C / -3°C

[Više]
Vetar 320º 4kt
Vidljivost >10km
Prognoza -
Oblaci Clouds and Visibility OK
Pritisak 1006
Promena No Significant change
Neobrađeno UUWW 230330Z 32002MPS CAVOK 03/M03 Q1006 R06/000070 NOSIG

VFR

2°C / -3°C

[Više]
Vetar 310º 4kt
Vidljivost >10km
Prognoza -
Oblaci Clouds and Visibility OK
Pritisak 1006
Promena No Significant change
Neobrađeno UUWW 230300Z 31002MPS CAVOK 02/M03 Q1006 R06/000070 NOSIG

VFR

1°C / -3°C

[Više]
Vetar 320º 4kt
Vidljivost >10km
Prognoza -
Oblaci Clouds and Visibility OK
Pritisak 1006
Promena No Significant change
Neobrađeno UUWW 230230Z 32002MPS CAVOK 01/M03 Q1006 R06/000070 NOSIG

VFR

1°C / -4°C

[Više]
Vetar 320º 4kt
Vidljivost >10km
Prognoza -
Oblaci Clouds and Visibility OK
Pritisak 1006
Promena No Significant change
Neobrađeno UUWW 230200Z 32002MPS CAVOK 01/M04 Q1006 R06/000070 NOSIG

VFR

1°C / -4°C

[Više]
Vetar 320º variable 300º to 030º 4kt
Vidljivost >10km
Prognoza -
Oblaci Clouds and Visibility OK
Pritisak 1006
Promena No Significant change
Neobrađeno UUWW 230130Z 32002MPS 300V030 CAVOK 01/M04 Q1006 R06/000070 NOSIG

VFR

1°C / -4°C

[Više]
Vetar 330º 4kt
Vidljivost >10km
Prognoza -
Oblaci Clouds and Visibility OK
Pritisak 1006
Promena No Significant change
Neobrađeno UUWW 230100Z 33002MPS CAVOK 01/M04 Q1006 R06/000070 NOSIG

VFR

1°C / -4°C

[Više]
Vetar 340º variable 290º to 040º 6kt
Vidljivost >10km
Prognoza -
Oblaci Clouds and Visibility OK
Pritisak 1005
Promena No Significant change
Neobrađeno UUWW 230030Z 34003MPS 290V040 CAVOK 01/M04 Q1005 R06/000070 NOSIG

VFR

2°C / -4°C

[Više]
Vetar 330º 6kt
Vidljivost >10km
Prognoza -
Oblaci Clouds and Visibility OK
Pritisak 1005
Promena No Significant change
Neobrađeno UUWW 230000Z 33003MPS CAVOK 02/M04 Q1005 R06/000070 NOSIG

VFR

2°C / -4°C

[Više]
Vetar 330º 6kt
Vidljivost >10km
Prognoza -
Oblaci Clouds and Visibility OK
Pritisak 1005
Promena No Significant change
Neobrađeno UUWW 222330Z 33003MPS CAVOK 02/M04 Q1005 R06/000070 NOSIG

VFR

3°C / -4°C

[Više]
Vetar 340º 4kt
Vidljivost >10km
Prognoza -
Oblaci Clouds and Visibility OK
Pritisak 1005
Promena No Significant change
Neobrađeno UUWW 222300Z 34002MPS CAVOK 03/M04 Q1005 R06/000070 NOSIG

VFR

3°C / -4°C

[Više]
Vetar 10º variable 330º to 040º 6kt
Vidljivost >10km
Prognoza -
Oblaci Clouds and Visibility OK
Pritisak 1005
Promena No Significant change
Neobrađeno UUWW 222230Z 01003MPS 330V040 CAVOK 03/M04 Q1005 R06/000070 NOSIG

VFR

3°C / -4°C

[Više]
Vetar 20º 6kt
Vidljivost >10km
Prognoza -
Oblaci Clouds and Visibility OK
Pritisak 1005
Promena No Significant change
Neobrađeno UUWW 222200Z 02003MPS CAVOK 03/M04 Q1005 R06/000070 NOSIG

VFR

3°C / -4°C

[Više]
Vetar 30º 8kt
Vidljivost >10km
Prognoza -
Oblaci Clouds and Visibility OK
Pritisak 1005
Promena No Significant change
Neobrađeno UUWW 222130Z 03004MPS CAVOK 03/M04 Q1005 R06/000070 NOSIG

VFR

4°C / -4°C

[Više]
Vetar 30º 10kt
Vidljivost >10km
Prognoza -
Oblaci Clouds and Visibility OK
Pritisak 1005
Promena No Significant change
Neobrađeno UUWW 222100Z 03005MPS CAVOK 04/M04 Q1005 R06/000070 NOSIG

VFR

5°C / -4°C

[Više]
Vetar 30º 10kt
Vidljivost >10km
Prognoza -
Oblaci Clouds and Visibility OK
Pritisak 1005
Promena No Significant change
Neobrađeno UUWW 222030Z 03005MPS CAVOK 05/M04 Q1005 R06/000070 NOSIG

VFR

5°C / -3°C

[Više]
Vetar 10º 10kt
Vidljivost >10km
Prognoza -
Oblaci Clouds and Visibility OK
Pritisak 1005
Promena No Significant change
Neobrađeno UUWW 222000Z 01005MPS CAVOK 05/M03 Q1005 R06/000070 NOSIG

VFR

6°C / -4°C

[Više]
Vetar 360º 10kt
Vidljivost >10km
Prognoza -
Oblaci Clouds and Visibility OK
Pritisak 1005
Promena No Significant change
Neobrađeno UUWW 221930Z 36005MPS CAVOK 06/M04 Q1005 R06/000070 NOSIG

VFR

7°C / -4°C

[Više]
Vetar 360º 10kt
Vidljivost >10km
Prognoza -
Oblaci Clouds and Visibility OK
Pritisak 1005
Promena No Significant change
Neobrađeno UUWW 221900Z 36005MPS CAVOK 07/M04 Q1005 R06/000070 NOSIG

VFR

7°C / -4°C

[Više]
Vetar 360º 8kt Gust 17kt
Vidljivost >10km
Prognoza -
Oblaci Clouds and Visibility OK
Pritisak 1005
Promena No Significant change
Neobrađeno UUWW 221830Z 36004G09MPS CAVOK 07/M04 Q1005 R06/000070 NOSIG

VFR

8°C / -5°C

[Više]
Vetar 350º 8kt
Vidljivost >10km
Prognoza -
Oblaci Clouds and Visibility OK
Pritisak 1005
Promena No Significant change
Neobrađeno UUWW 221800Z 35004MPS CAVOK 08/M05 Q1005 R06/000070 NOSIG

VFR

8°C / -5°C

[Više]
Vetar 350º 8kt
Vidljivost >10km
Prognoza -
Oblaci Clouds and Visibility OK
Pritisak 1004
Promena No Significant change
Neobrađeno UUWW 221730Z 35004MPS CAVOK 08/M05 Q1004 R06/000070 NOSIG

TAF za 55.6°S 37.27°I (UUWW)

From till


Maximum Temperature 14ºC on . Minimum Temperature 5ºC on .
From till Wind 310º 10kt. Visibility 10km or more. Scattered Clouds 3000ft.
Temporarly from till Wind 320º 16kt. Gust 29kt.

Neobrađeno: TAF UUWW 230455Z 2306/2406 31005MPS 9999 SCT030 TX14/2312Z TN05/2401Z TEMPO 2306/2317 32008G15MPS

Radar i padavine kratka prognoza za 55.6°S 37.27°I

Rominjati
Lak
Umjereno
Teška
Vrlo teško
Zdravo

Marker lokacije postavljen je na 55.6°S 37.27°I. Ova animacija prikazuje radar padavina za poslednji sat, kao i 1h prognozu. Kiša ili slab snijeg mogu biti nevidljivi za radar. Intenzitet padavina je označen bojom, u rasponu od svetloplave do narandžaste.

Trenutni satelitski snimci i slike kiše za 55.6°S 37.27°I

Marker lokacije postavljen je na 55.6°S 37.27°I. [Više]

Satelitski snimci u realnom vremenu kombinuju vidljivu svetlost tokom dana sa infracrvenim zračenjem tokom noći. Noću slika nije tamna jer infracrveno zračenje može otkriti temperaturne razlike. Nažalost, niski oblaci i magla teško se mogu razlikovati od temperature zemlje tako da mogu biti skoro nevidljivi tokom noći. Meteosat satelitski snimci za Evropu se ažuriraju u realnom vremenu na svakih 5 minuta. Slnimci GOES-16/GOES-17 (Severna i Južna Amerika) and Himawari (Azia) ažuriraju se na svakih 10 minuta.

Autorsko pravo 2022 EUMETSAT / meteoblue. / Autorsko pravo 2022 meteoblue

Nazad na vrh